Tracking 29892 objects as of 21-Nov-2024
HD Live streaming from Space Station
objects crossing your sky now

STARLINK-5917

Track STARLINK-5917 now!
10-day predictions
STARLINK-5917 is classified as:


NORAD ID: 55942
Int'l Code: 2023-037AE
Perigee: 577.2 km
Apogee: 581.1 km
Inclination: 70.0 °
Period: 96.1 minutes
Semi major axis: 6950 km
RCS: Unknown
Launch date: March 17, 2023
Source: United States (US)
Launch site: AIR FORCE WESTERN TEST RANGE (AFWTR)
Your satellite tracking list
Your tracking list is empty




NASA's NSSDC Master Catalog

Two Line Element Set (TLE):
1 55942U 23037AE  24325.62415581  .00000706  00000-0  66935-4 0  9994
2 55942  70.0008  39.5876 0002849 267.6782  92.4051 14.98342441 92979
Source of the keplerian elements: AFSPC